Regional Weather Roundup
Issued by NWS

Home | Current Version | Previous Version | Graphics & Text | Print | Product List | Glossary On
Versions: 1 2 3 4 5 6 7 8 9 10 11 12 13 14 15 16 17 18 19 20 21 22 23 24 25 26 27 28 29 30 31 32 33 34 35 36 37 38 39 40 41 42 43 44 45 46 47 48 49 50
000
ASUS43 KLMK 301310
RWRKY
KENTUCKY REGIONAL WEATHER ROUNDUP
NATIONAL WEATHER SERVICE LOUISVILLE KY
900 AM EDT SAT AUG 30 2014

NOTE "FAIR" INDICATES FEW OR NO CLOUDS BELOW 12,000 FEET
WITH NO SIGNIFICANT WEATHER AND/OR OBSTRUCTIONS TO VISIBILITY.

KYZ001>023-026-027-061>063-070>075-301400-
WESTERN AND SOUTH CENTRAL KENTUCKY

CITY           SKY/WX    TMP DP  RH WIND       PRES   REMARKS
PADUCAH        CLOUDY    77  69  76 S3        29.99F
HENDERSON      PTSUNNY   72  68  88 SE3       30.01S
OWENSBORO      NOT AVBL
HOPKINSVILLE   PTSUNNY   76  66  71 SW5       30.04R
BOWLING GREEN  MOSUNNY   76  65  68 S7        30.06S
GLASGOW        MOSUNNY   74  64  70 S7        30.08S
$$

KYZ024-025-028>034-038-045-046-053-301400-
NORTH CENTRAL KENTUCKY

CITY           SKY/WX    TMP DP  RH WIND       PRES   REMARKS
LOUISVILLE/SDF CLOUDY    76  65  68 SE6       30.04S
LOUISVILLE/LOU PTSUNNY   75  65  70 SE6       30.05S
FORT KNOX      PTSUNNY   74  67  77 S8        30.04S
$$

KYZ035>037-039>044-047>052-055>060-089>105-301400-
NORTHEAST KENTUCKY

CITY           SKY/WX    TMP DP  RH WIND       PRES   REMARKS
LEXINGTON      SUNNY     77  66  68 S9        30.09S
COVINGTON      CLOUDY    75  65  70 S10       30.06S
FRANKFORT      SUNNY     75  65  70 S8        30.06F
$$

KYZ054-064>069-076>088-106>120-301400-
SOUTHEAST KENTUCKY

CITY           SKY/WX    TMP DP  RH WIND       PRES   REMARKS
JACKSON        SUNNY     75  67  76 CALM      30.15S
LONDON         SUNNY     74  67  78 CALM      30.15R
SOMERSET       SUNNY     73  63  68 S5        30.13S
MIDDLESBORO    PTSUNNY   73  68  82 CALM      30.17S
MONTICELLO     MOSUNNY   76  67  73 S7        30.13S
$$




USA.gov is the U.S. government's official web portal to all federal, state and local government web resources and services.